Flag for Germany Weather past 2 weeks in Neuwied, Rhineland-Palatinate, Germany

Now
25 °F

Cold.


Feels Like: 18 °F
Forecast: 29 / 38 °F
Wind: 6 mph from Northwest

Location: Buechel

Current Time: Feb 1, 2015 at 5:13:44 AM

Latest Report: Feb 1, 2015 at 4:20 AM


Visibility: N/A

Pressure: 29.12 "Hg

Humidity: 100%

Dew point: 25 °F

Location of NeuwiedLocation

Historic Weather in Neuwied — Graph

°F

Neuwied temperature yesterday

Maximum temperature yesterday: 32 °F (at 12:20 PM)
Minimum temperature yesterday: 28 °F (at 12:20 AM)
Average temperature yesterday: 30 °F

Past Weeks' High & Low Weather Summary

 TemperatureHumidityPressure
High36 °F (Jan 17, 5:20 AM)100% (Jan 17, 3:20 AM)30.39 "Hg (Jan 17, 3:20 AM)
Low23 °F (Jan 23, 11:20 PM)69% (Jan 20, 9:20 PM)28.68 "Hg (Jan 30, 12:20 AM)
Average30 °F92%29.78 "Hg
* Reported Jan 17 3:20 AM — Feb 1 3:20 AM, Neuwied, Weather by CustomWeather, © 2014

Note: Actual official high and low records may vary slightly from our data, if they occured in-between our weather recording intervals... More about our weather records

Advertising

Neuwied weather history for previous 24 hours

 ConditionsComfort  
Time TempWeatherWind HumidityBarometerVisibility
3:20 AM
Feb 1
27 °FChilly.6 mph93%29.09 "HgN/A
2:20 AM28 °FChilly.8 mph93%29.09 "HgN/A
1:20 AM28 °FChilly.5 mph100%29.09 "Hg4 mi
12:20 AM28 °FChilly.3 mph100%29.09 "Hg0 mi
11:20 PM
Jan 31
28 °FChilly.5 mph100%29.06 "Hg2 mi
10:20 PM30 °FChilly.5 mph93%29.09 "Hg4 mi
9:20 PM30 °FChilly.8 mph93%29.06 "Hg6 mi
8:20 PM30 °FChilly.7 mph100%29.06 "Hg4 mi
7:20 PM30 °FChilly.6 mph93%29.06 "Hg5 mi
6:20 PM30 °FChilly.7 mph93%29.03 "HgN/A
5:20 PM30 °FChilly.6 mph93%29.03 "HgN/A
4:20 PM30 °FChilly.7 mph93%29.00 "HgN/A
3:20 PM32 °FChilly.7 mph93%29.00 "HgN/A
2:20 PM32 °FChilly.6 mph93%29.00 "HgN/A
1:20 PM32 °FChilly.9 mph87%29.00 "HgN/A
12:20 PM32 °FChilly.8 mph87%29.00 "HgN/A
11:20 AM30 °FChilly.7 mph93%29.00 "HgN/A
10:20 AM30 °FChilly.8 mph93%28.97 "Hg6 mi
9:20 AM28 °FChilly.8 mph100%28.97 "Hg5 mi
8:20 AM28 °FChilly.7 mph100%28.94 "Hg6 mi
7:20 AM28 °FChilly.8 mph100%28.91 "Hg4 mi
6:20 AM30 °FChilly.9 mph93%28.91 "Hg4 mi
5:20 AM28 °FChilly.8 mph100%28.91 "Hg3 mi
Weather by CustomWeather, © 2014

See weather overviewHow to use our weather pages